Regional Weather Roundup
Issued by NWS

Home | Current Version | Previous Version | Text Only | Print | Product List | Glossary On
Versions: 1 2 3 4 5 6 7 8 9 10 11 12 13 14 15 16 17 18 19 20 21 22 23 24 25 26 27 28 29 30 31 32 33 34 35 36 37 38 39 40 41 42 43 44 45 46 47 48 49 50
000
ASUS43 KMKX 260521
RWRWI

WISCONSIN REGIONAL WEATHER ROUNDUP
NATIONAL WEATHER SERVICE MILWAUKEE/SULLIVAN WI
1200 AM CDT THU MAY 26 2016

NOTE: "FAIR" INDICATES FEW OR NO CLOUDS BELOW 12,000 FEET WITH NO
SIGNIFICANT WEATHER AND/OR OBSTRUCTIONS TO VISIBILITY.

WIZ001-002-006>008-014>016-023>028-260600-
NORTHWEST WISCONSIN

CITY           SKY/WX    TMP DP  RH WIND       PRES   REMARKS
SUPERIOR ARPT  CLOUDY    44  43  97 NE10      29.88F
ASHLAND        CLOUDY    47  47 100 N3        29.87F FOG
HAYWARD        FOG       52  51  97 CALM      29.86S VSB 3/4
SIREN          CLOUDY    58  57  97 E3        29.85F FOG
CUMBERLAND     FOG       55  55 100 CALM      29.85S VSB 1/2
RICE LAKE      FOG       57  56  94 CALM      29.87S VSB 3/4
CHETEK         FOG       56  56 100 S3        29.86S VSB 1/4
LADYSMITH      CLOUDY    58  57  97 CALM      29.88R
EAU CLAIRE     FOG       59  59 100 CALM      29.86S VSB 1/2
MENOMONIE      FOG       62  62  99 CALM      29.86S VSB 1
NEW RICHMOND   FOG       63  63 100 SE8       29.85F VSB 3/4
OSCEOLA        CLOUDY    64  64 100 SE9       29.86F
$$

WIZ003>005-009-010-017-018-260600-
NORTH CENTRAL WISCONSIN

CITY           SKY/WX    TMP DP  RH WIND       PRES   REMARKS
MANITOWISH WTR NOT AVBL
ARBOR VITAE    DRIZZLE   60  58  94 E3        29.84F
WOODRUFF       DRIZZLE   60  58  94 E3        29.84F
RHINELANDER    CLOUDY    60  58  92 S7        29.86F
EAGLE RIVER    HVY RAIN  58  58  99 SE5       29.85F
LAND O LAKES   RAIN      59  58  97 SE6       29.87F
PHILLIPS       CLOUDY    61  61 100 CALM      29.83F
TOMAHAWK       CLOUDY    61  60  96 CALM      29.85S
MEDFORD        CLOUDY    61  61 100 SW7       29.87S
MERRILL        CLOUDY    63  63 100 S6        29.87S
$$

WIZ029-030-035-036-043>047-260600-
CENTRAL WISCONSIN

CITY           SKY/WX    TMP DP  RH WIND       PRES   REMARKS
WAUSAU         CLOUDY    64  32  30 S9        29.86F HAZE
MOSINEE        CLOUDY    61  61 100 S5        29.88F FOG
MARSHFIELD     FOG       63  61  93 S5        29.87S VSB 1
STEVENS POINT  CLOUDY    59  58  98 CALM      29.88S FOG
WAUPACA        CLOUDY    63  62  97 CALM      29.88F FOG
WAUTOMA        CLEAR     59  59 100 CALM      29.89R FOG
WISC RAPIDS    PTCLDY    61  59  93 S3        29.88S FOG
CAMP DOUGLAS   FOG       63  63 100 E1        29.87S VSB 1/4
$$

WIZ011>013-019>022-031-037>040-048>050-260600-
NORTHEAST WISCONSIN

CITY           SKY/WX    TMP DP  RH WIND       PRES   REMARKS
ANTIGO         CLOUDY    58  58 100 S8        29.88S FOG
SHAWANO        CLOUDY    62  60  94 CALM      29.88F FOG
OCONTO         CLOUDY   N/A N/A N/A CALM      29.87F
STURGEON BAY   NOT AVBL
GREEN BAY      PTCLDY    60  59  96 CALM      29.87F FOG
MANITOWOC      CLOUDY    55  54  96 SE6       29.90F FOG
APPLETON       PTCLDY    59  59 100 SE7       29.86F FOG
CLINTONVILLE   CLOUDY    59  59 100 CALM      29.87F FOG
OSHKOSH        CLEAR     59  57  93 S7        29.87F FOG
$$

WIZ032>034-041-042-053>061-260600-
SOUTHWEST WISCONSIN

CITY           SKY/WX    TMP DP  RH WIND       PRES   REMARKS
LA CROSSE      CLEAR     66  64  93 SE5       29.85R
SPARTA         CLEAR     61  61 100 CALM      29.88R FOG
VIROQUA        PTCLDY    68  62  81 S6        29.89S
BOSCOBEL       PTCLDY    62  60  93 CALM      29.87S FOG
PRAIRIE DU CHI MOCLDY    66  60  78 CALM      29.86S
PLATTEVILLE    PTCLDY    69  59  70 S5        29.90S
$$

WIZ056-057-062-063-064-067-068-260600-
SOUTH CENTRAL WISCONSIN

CITY           SKY/WX    TMP DP  RH WIND       PRES   REMARKS
REEDSBURG      PTCLDY    65  65 100 CALM      29.88S FOG
BARABOO/DELLS    N/A     63  61  94 CALM      29.88F FOG
LONE ROCK      CLEAR     65  61  87 E3        29.88S
MINERAL POINT  PTCLDY    70  57  64 SW3       29.90S
MADISON        PTCLDY    69  63  81 S8        29.88F
MIDDLETON      CLEAR     70  63  78 SW8       29.89F
WATERTOWN      CLEAR     65  65 100 SE3       29.89S
MONROE         CLEAR     64  63  94 S5        29.90S
JANESVILLE     CLEAR     68  64  88 S3        29.90S
$$

WIZ051-052-058>065-066-070>072-260600-
SOUTHEAST WISCONSIN

CITY           SKY/WX    TMP DP  RH WIND       PRES   REMARKS
MILWAUKEE      MOCLDY    60  58  92 SE5       29.91F
WAUKESHA       MOCLDY    59  59 100 S7        29.92F FOG
MILWAUKEE/TIMM PTCLDY    57  54  88 CALM      29.92F FOG
RACINE         CLOUDY    62  60  93 S10       29.93F
BURLINGTON     CLEAR     62  62  99 SW3       29.92S
KENOSHA        CLOUDY    65  62  90 S7        29.92F
FOND DU LAC    LGT RAIN  63  61  93 S7        29.89S
SHEBOYGAN      CLOUDY    56  54  93 CALM      29.91F FOG
WEST BEND      CLOUDY    57  55  94 SW3       29.91S FOG
JUNEAU         MOCLDY    61  60  97 SE5       29.91S FOG
$$

LSZ147-162-260600-
LAKE SUPERIOR

STATION/POSITION TIME  TEMP    WIND        PRES    WAVE
                       AIR SEA DIR/SP/G            HT/PER
                 (UTC) (F)     (DEG/KT/KT) (MB)    (FT/S)
W MID LAKE BUOY  0450   40 38   60/ 12/ 14 1011.9F   2/ 5
DEVILS ISLAND    0500   42      50/  8/  9 1012.0F
PORT WING        0420   43      70/  3/  6 1011.9S
SAXON HARBOR     0400   49     280/  2/  7 1010.2F
$$

LMZ867-665-643>646-260600-
LAKE MICHIGAN

STATION/POSITION TIME  TEMP    WIND        PRES    WAVE
                       AIR SEA DIR/SP/G            HT/PER
                 (UTC) (F)     (DEG/KT/KT) (MB)    (FT/S)
CHAMBERS ISLAND  0400   58     170/  2/  6 1012.9F
N MID LAKE BUOY  0450   51 45  180/  8/ 10 1013.0R   1/ 3
NORTHPORT PIER   0400   55     170/  4/  5 1012.9F
SISTER BAY       0404   56     170/  9/ 11   N/A
ALGOMA LAKESHORE 0417           90/  7/  7   N/A
KEWAUNEE LAKESHO 0500   52      30/  2/  5 1011.8F
SHEBOYGAN LAKESH 0500   51     100/  2/  3 1013.4F
PORT WASHINGTON  0400   55     120/  4/  5 1014.2S
S MID LAKE BUOY  0450   55 49  140/ 14/ 16 1012.9F   1/ 3
KENOSHA   LAKESH 0500   58     170/ 11/ 13 1012.9F
$$

TC  - TEMPERATURE IN CELSIUS
VSB - VISIBILITY IN STATUTE MILES
WCI - WIND CHILL INDEX
HX  - HEAT INDEX





USA.gov is the U.S. government's official web portal to all federal, state and local government web resources and services.